カタログに戻る

SENTINEL-2C

運用中科学SSO
NORAD 60989·PAYLOAD·🇪🇺 EU

打ち上げ Sep 5, 2024 から Guiana Space Centre

Loading…

次のパス (今後24時間)

TLE

最新Source: Space-Track

元期: Sep 14, 2026, 14:42 UTC

1 60989U 24157A   26257.61309269  .00000051  00000-0  36007-4 0  9995
2 60989  98.5726 331.1028 0001403  88.0657 272.0687 14.30813356105777

AllMySatでSENTINEL-2Cをリアルタイム追跡

Download on the App Store